Temp
14 14 14 14 14 14 13 13 13 13 12 12 11 10 10 10 10 11 11 10 9 8 8 8 8 7 7 7 7 7 8 7 8 7 7 7 7 7 7 7 7 7 7 7 7 7 7 7 7
13 14 14 14 14 14 13 13 13 13 13 12 12 11 11 11 11 11 11 10 9 8 8 8 8 8 7 7 7 8 8 8 8 7 7 7 7 7 7 7 7 7 7 7 7 7 7 7 7
13 14 14 14 14 14 13 13 14 14 13 12 12 12 12 11 11 11 11 10 10 8 8 8 8 8 8 7 7 8 8 8 7 7 7 7 7 7 7 7 7 7 7 7 7 7 7 7 7
13 13 13 14 14 14 13 13 13 13 13 12 12 13 12 11 11 10 10 10 9 9 8 8 8 8 8 7 7 8 8 7 7 7 7 7 7 6 6 6 7 7 7 7 7 7 7 7 7
12 13 13 14 14 14 13 13 13 13 13 13 12 13 12 11 11 10 10 9 9 9 8 8 8 7 8 7 7 7 8 8 7 7 7 7 6 6 7 7 6 7 7 7 7 7 7 7 7
12 12 13 13 14 14 13 13 13 13 13 13 12 13 12 11 10 10 10 9 9 8 8 8 8 8 8 7 7 7 7 7 7 7 7 7 7 6 6 7 7 7 7 7 7 7 7 7 7
11 12 12 13 14 14 13 13 13 13 13 13 12 13 13 11 11 10 10 9 9 8 8 8 8 8 8 7 7 7 7 7 7 7 7 7 7 7 7 6 7 7 7 7 7 7 7 7 7
11 11 12 12 13 13 13 12 12 12 13 13 12 12 12 12 11 10 10 9 9 8 8 8 8 7 7 7 7 7 7 7 7 7 7 7 7 7 7 7 7 7 7 7 7 8 8 8 8
11 11 11 12 12 13 12 12 12 12 13 13 12 12 12 12 11 10 10 9 9 9 8 8 8 7 7 7 7 7 7 7 7 7 7 7 7 7 7 7 6 6 7 7 7 7 7 8 8
10 11 11 12 11 11 12 12 12 12 12 12 12 11 12 11 11 10 9 9 9 8 8 8 8 7 7 7 7 7 7 7 7 7 7 7 7 7 7 7 7 6 6 6 7 7 7 7 7
11 11 11 11 11 11 11 11 12 12 12 12 12 11 11 11 10 10 9 9 9 9 8 8 7 7 7 7 7 7 7 7 7 7 7 7 7 7 7 7 7 7 6 6 6 6 6 6 7
10 11 11 11 11 11 10 11 11 12 12 12 11 11 10 10 10 9 8 8 8 8 8 8 8 7 7 7 7 7 7 7 7 7 7 7 7 7 7 7 7 7 7 7 7 7 6 6 6
9 10 11 11 11 11 10 10 11 11 11 11 10 10 9 9 9 9 8 7 7 7 7 7 8 8 8 8 8 8 8 8 8 7 7 7 7 7 7 7 7 7 7 7 7 7 7 7 7
9 9 10 10 10 10 10 10 10 10 10 10 9 9 8 8 8 8 8 7 7 7 7 7 7 7 7 7 7 7 7 8 8 8 8 7 7 7 7 7 7 7 7 7 7 7 7 7 7
9 9 9 10 10 9 9 9 9 10 10 10 10 8 8 8 8 8 8 7 7 7 6 6 6 7 6 6 6 6 6 6 7 7 7 7 7 7 7 7 7 6 6 7 7 7 7 7 7
8 8 8 8 8 9 9 8 9 9 9 9 9 8 8 7 7 8 8 7 7 7 7 7 6 6 6 6 6 5 6 6 6 5 5 5 5 6 6 6 5 6 6 6 6 6 7 7 7
8 8 8 8 8 8 8 9 9 9 9 9 8 8 7 7 7 7 7 7 7 7 7 7 6 6 5 5 5 6 6 5 5 5 5 5 6 5 4 5 5 5 5 5 5 5 6 5 6
7 7 7 8 8 8 8 9 9 9 8 8 7 7 7 7 7 7 7 7 7 7 7 7 7 6 6 6 5 5 5 6 5 6 5 5 5 6 5 5 5 6 5 5 5 5 5 5 6
8 8 8 7 7 7 7 8 8 8 8 7 6 6 6 7 7 7 7 7 7 7 7 7 6 6 6 5 5 5 5 5 5 5 4 4 5 5 5 5 6 5 5 5 5 5 5 5 6
7 7 7 7 7 7 7 7 7 8 7 6 5 5 5 6 6 6 6 7 6 6 6 6 5 4 5 4 5 4 5 5 5 5 5 5 6 5 5 5 5 5 5 5 5 5 5 5 6
6 6 7 7 6 5 6 5 6 6 5 5 5 5 5 5 5 5 6 6 6 5 5 5 4 4 4 4 4 4 4 4 4 5 5 5 5 5 5 5 6 6 6 6 6 6 6 5 5
5 5 6 7 6 5 5 6 4 5 6 5 5 6 5 5 5 5 5 5 5 4 4 4 4 4 4 4 4 4 4 4 5 5 5 5 5 5 5 6 6 6 6 6 6 6 6 6 5
5 5 6 6 5 5 3 5 4 5 4 5 6 6 5 4 4 4 5 4 4 4 4 4 4 4 4 4 4 4 4 4 5 5 5 5 5 5 5 5 5 5 5 5 5 5 5 5 5
4 5 5 4 4 2 6 4 7 6 6 7 6 6 4 4 4 4 4 4 3 3 3 3 3 4 4 4 4 4 4 5 5 5 5 5 5 5 5 5 5 5 5 5 5 5 5 5 5
3 4 2 2 2 6 5 2 6 6 7 8 8 7 5 4 4 4 4 3 3 3 3 3 3 3 4 4 4 4 4 4 4 4 4 4 4 5 5 4 4 4 4 4 4 4 4 4 4
3 4 4 5 5 6 3 3 5 5 6 7 7 5 4 4 5 4 4 4 3 3 3 3 3 3 3 4 4 4 4 4 4 4 4 4 4 4 4 4 4 4 4 4 4 4 4 3 3
3 3 5 5 4 5 4 4 4 5 6 6 7 5 4 4 4 4 4 3 3 3 3 3 3 3 3 3 3 3 3 3 4 4 4 4 4 4 4 4 3 3 3 3 3 3 3 3 3
3 5 3 4 4 5 5 5 5 5 6 6 6 6 4 4 3 3 3 3 3 3 2 3 3 2 3 3 3 3 3 3 3 3 3 3 3 3 3 3 3 3 3 3 3 3 2 2 2
3 2 3 4 4 6 6 6 6 5 6 6 7 7 6 5 3 3 3 3 3 2 2 2 2 2 2 3 3 3 3 3 3 3 3 3 3 3 3 2 2 2 2 2 2 2 2 2 2
3 3 3 4 4 4 5 6 7 7 7 7 7 7 6 5 4 3 3 3 2 2 2 2 2 2 2 2 3 3 3 3 3 3 3 2 2 2 2 2 2 2 1 2 1 1 1 1 1
Height
3166 3167 3168 3169 3173 3169 3170 3172 3171 3171 3171 3171 3170 3171 3172 3171 3173 3176 3173 3173 3173 3176 3177 3178 3178 3180 3181 3182 3183 3184 3185 3186 3186 3186 3186 3185 3185 3185 3185 3186 3186 3187 3187 3188 3189 3190 3190 3191 3192
3164 3165 3167 3167 3169 3168 3171 3170 3171 3172 3172 3172 3171 3171 3171 3173 3173 3173 3174 3174 3174 3177 3179 3181 3181 3181 3183 3184 3185 3185 3186 3187 3187 3187 3186 3186 3186 3186 3186 3187 3188 3189 3189 3189 3191 3192 3192 3194 3194
3162 3163 3166 3167 3166 3167 3169 3168 3171 3172 3172 3173 3172 3172 3172 3173 3174 3174 3174 3175 3176 3178 3180 3182 3183 3184 3185 3186 3187 3188 3187 3187 3188 3188 3189 3188 3188 3188 3189 3189 3189 3190 3191 3192 3193 3193 3194 3195 3196
3159 3162 3165 3165 3164 3166 3168 3168 3170 3172 3173 3174 3173 3173 3174 3174 3174 3175 3176 3177 3178 3179 3181 3183 3184 3185 3187 3188 3189 3190 3190 3190 3190 3189 3188 3188 3188 3188 3189 3191 3192 3192 3193 3194 3195 3196 3196 3197 3197
3157 3158 3161 3162 3163 3164 3166 3168 3170 3171 3173 3173 3174 3174 3174 3173 3174 3176 3177 3178 3179 3180 3182 3183 3184 3186 3188 3190 3191 3191 3192 3192 3192 3192 3191 3190 3189 3189 3190 3191 3193 3194 3195 3195 3196 3197 3198 3198 3199
3155 3156 3157 3159 3162 3163 3164 3166 3168 3170 3172 3173 3174 3174 3175 3174 3174 3175 3177 3179 3179 3182 3183 3185 3185 3187 3189 3190 3192 3192 3192 3193 3193 3193 3193 3192 3192 3191 3191 3192 3193 3194 3195 3196 3198 3199 3199 3200 3200
3152 3153 3154 3156 3159 3161 3163 3164 3167 3170 3171 3172 3174 3174 3174 3174 3174 3175 3176 3178 3179 3181 3184 3185 3186 3188 3190 3191 3192 3193 3193 3193 3194 3194 3193 3193 3194 3193 3193 3194 3194 3195 3196 3197 3198 3199 3199 3200 3201
3151 3152 3152 3154 3156 3159 3160 3162 3165 3167 3170 3170 3171 3173 3173 3174 3174 3175 3176 3178 3179 3180 3182 3184 3186 3188 3189 3190 3191 3192 3193 3193 3194 3194 3194 3195 3194 3195 3195 3195 3195 3196 3196 3196 3197 3198 3199 3199 3200
3149 3150 3150 3152 3153 3155 3157 3159 3161 3165 3167 3169 3171 3172 3173 3173 3174 3176 3177 3178 3179 3181 3182 3183 3185 3187 3188 3190 3191 3192 3192 3193 3194 3194 3194 3194 3194 3195 3195 3196 3196 3196 3196 3197 3197 3197 3197 3198 3198
3147 3147 3149 3151 3152 3153 3155 3158 3159 3162 3165 3167 3168 3170 3172 3173 3174 3175 3177 3178 3179 3181 3182 3183 3185 3186 3187 3189 3190 3190 3191 3191 3191 3191 3191 3191 3192 3192 3193 3193 3194 3194 3195 3195 3195 3196 3196 3196 3196
3143 3145 3147 3149 3151 3152 3154 3156 3158 3161 3163 3165 3166 3168 3170 3173 3174 3175 3177 3179 3180 3181 3182 3183 3184 3185 3186 3187 3188 3188 3188 3189 3189 3190 3191 3191 3191 3192 3192 3193 3193 3193 3192 3192 3192 3193 3193 3193 3193
3140 3142 3144 3146 3148 3151 3153 3155 3156 3158 3161 3164 3165 3167 3169 3171 3174 3175 3177 3179 3180 3181 3183 3184 3185 3185 3186 3186 3186 3187 3187 3187 3188 3189 3190 3191 3191 3192 3192 3192 3192 3192 3192 3191 3191 3190 3189 3189 3188
3136 3137 3140 3143 3146 3148 3151 3153 3155 3157 3160 3162 3164 3166 3168 3171 3173 3175 3176 3178 3180 3181 3182 3184 3185 3185 3185 3185 3185 3186 3186 3187 3188 3188 3189 3189 3189 3190 3190 3190 3190 3190 3190 3190 3189 3189 3188 3187 3186
3132 3133 3137 3138 3142 3145 3147 3150 3152 3154 3157 3159 3162 3165 3167 3170 3171 3174 3176 3178 3179 3180 3181 3182 3183 3184 3185 3185 3185 3185 3185 3186 3186 3187 3187 3187 3187 3188 3189 3189 3188 3188 3187 3187 3186 3186 3185 3184 3183
3129 3131 3133 3135 3138 3141 3145 3149 3149 3152 3155 3157 3160 3163 3165 3168 3170 3172 3174 3176 3178 3179 3179 3180 3181 3181 3182 3183 3183 3182 3183 3183 3183 3184 3184 3184 3185 3185 3185 3185 3185 3185 3185 3184 3183 3182 3181 3181 3179
3126 3129 3129 3130 3134 3137 3141 3145 3146 3149 3152 3154 3157 3159 3162 3165 3167 3169 3171 3174 3175 3176 3178 3178 3179 3178 3179 3178 3180 3180 3180 3180 3181 3181 3181 3181 3181 3181 3182 3181 3181 3180 3179 3179 3178 3177 3176 3174 3173
3119 3118 3121 3127 3130 3133 3137 3140 3143 3146 3149 3152 3154 3155 3158 3160 3163 3165 3167 3170 3172 3173 3174 3175 3176 3176 3177 3177 3178 3178 3178 3179 3179 3179 3178 3179 3179 3179 3178 3177 3176 3176 3174 3173 3172 3170 3169 3167 3166
3109 3117 3119 3122 3127 3130 3133 3135 3138 3141 3145 3148 3151 3153 3155 3157 3159 3162 3164 3166 3168 3168 3169 3169 3170 3171 3172 3171 3173 3175 3174 3175 3176 3176 3175 3175 3176 3175 3173 3172 3171 3170 3168 3168 3166 3164 3161 3160 3158
3111 3113 3117 3121 3125 3129 3131 3133 3134 3137 3140 3143 3147 3150 3152 3155 3157 3158 3160 3162 3163 3163 3164 3164 3164 3164 3166 3167 3168 3169 3171 3171 3171 3171 3172 3171 3170 3169 3167 3165 3164 3162 3161 3161 3160 3158 3156 3153 3151
3105 3108 3111 3118 3122 3125 3126 3128 3130 3133 3136 3140 3144 3147 3149 3151 3153 3154 3156 3157 3157 3158 3158 3158 3159 3160 3161 3163 3164 3166 3167 3167 3168 3168 3168 3167 3166 3163 3162 3160 3159 3158 3156 3154 3153 3151 3149 3146 3142
3099 3100 3102 3109 3115 3120 3123 3125 3125 3128 3132 3135 3138 3141 3143 3145 3148 3150 3151 3152 3152 3153 3153 3154 3155 3156 3157 3159 3160 3162 3163 3163 3164 3163 3163 3162 3160 3159 3157 3155 3154 3152 3150 3148 3147 3144 3142 3139 3136
3093 3100 3105 3105 3112 3115 3119 3121 3120 3121 3126 3128 3131 3136 3138 3141 3143 3145 3146 3147 3148 3149 3150 3151 3152 3152 3153 3154 3156 3157 3157 3158 3158 3158 3157 3157 3156 3155 3154 3153 3151 3150 3148 3145 3142 3140 3137 3134 3131
3091 3098 3102 3105 3110 3114 3116 3118 3111 3116 3115 3120 3127 3130 3132 3136 3138 3141 3142 3143 3144 3146 3147 3148 3149 3150 3150 3151 3151 3152 3153 3153 3153 3153 3153 3153 3153 3152 3150 3149 3147 3145 3143 3140 3138 3135 3132 3130 3127
3088 3093 3099 3103 3107 3109 3103 3109 3104 3102 3106 3118 3119 3123 3126 3130 3134 3136 3137 3139 3141 3143 3144 3145 3146 3147 3148 3148 3149 3150 3150 3150 3150 3150 3150 3150 3149 3147 3146 3144 3143 3141 3139 3136 3133 3130 3127 3125 3122
3084 3086 3096 3101 3102 3086 3096 3102 3094 3099 3106 3111 3114 3116 3120 3124 3129 3132 3133 3135 3137 3139 3141 3142 3143 3144 3145 3146 3147 3147 3147 3148 3148 3148 3147 3146 3145 3144 3143 3142 3140 3138 3136 3132 3130 3127 3124 3120 3116
3069 3075 3075 3077 3080 3082 3094 3091 3087 3098 3104 3107 3108 3112 3115 3121 3125 3127 3129 3131 3133 3135 3137 3138 3140 3141 3143 3144 3144 3145 3145 3146 3146 3145 3145 3144 3142 3141 3140 3139 3137 3134 3131 3128 3125 3122 3118 3115 3111
3068 3069 3069 3074 3078 3084 3086 3083 3085 3089 3093 3098 3099 3102 3108 3114 3119 3122 3125 3126 3128 3130 3132 3134 3136 3138 3139 3140 3141 3142 3142 3143 3143 3142 3141 3140 3139 3137 3136 3134 3132 3129 3125 3122 3119 3116 3112 3108 3104
3058 3061 3068 3069 3072 3072 3068 3072 3070 3077 3084 3089 3094 3098 3101 3109 3112 3115 3119 3122 3124 3126 3128 3130 3131 3133 3135 3136 3137 3138 3138 3138 3137 3137 3137 3136 3135 3133 3132 3129 3126 3124 3121 3118 3115 3112 3107 3103 3098
3053 3056 3060 3062 3062 3061 3060 3056 3064 3070 3075 3079 3084 3090 3094 3098 3104 3110 3114 3117 3119 3121 3124 3126 3127 3129 3132 3133 3133 3133 3134 3135 3134 3134 3134 3132 3131 3130 3127 3124 3123 3121 3118 3114 3110 3106 3101 3096 3091
3047 3048 3048 3052 3056 3054 3058 3051 3057 3061 3063 3069 3077 3080 3086 3093 3099 3105 3109 3112 3114 3117 3120 3122 3124 3126 3127 3128 3129 3130 3131 3132 3131 3130 3129 3128 3127 3124 3123 3122 3120 3116 3112 3109 3104 3100 3095 3090 3085
Wind_Speed
5 2 2 5 3 8 12 10 12 15 11 5 2 4 5 5 1 5 9 13 14 15 15 14 14 12 9 6 5 6 8 9 9 8 8 8 9 9 10 9 10 10 11 11 10 10 12 13 12
6 4 5 5 6 11 10 12 9 10 11 9 10 10 9 9 10 13 13 15 16 14 15 14 13 12 9 7 4 5 5 7 8 8 8 8 8 8 9 9 9 9 10 10 9 9 10 10 11
8 8 8 5 8 9 10 13 12 13 14 14 14 14 16 16 15 15 16 15 15 14 13 13 12 11 9 7 5 4 5 6 7 7 7 8 8 8 8 9 9 8 9 9 9 10 10 10 9
10 10 9 9 9 13 12 12 15 10 14 13 11 15 17 17 17 17 16 16 15 14 13 12 12 10 9 7 6 5 5 6 7 8 9 9 9 9 9 9 8 8 8 8 8 8 8 8 8
11 11 12 16 14 11 13 16 14 14 13 6 7 15 17 19 18 17 16 16 15 13 12 11 11 10 9 7 6 5 5 6 7 8 8 9 9 9 8 8 8 7 7 7 6 6 6 7 6
11 13 14 20 20 14 13 18 16 16 9 8 11 16 17 19 19 19 17 15 16 12 11 10 10 10 8 7 5 5 4 5 6 7 8 8 8 7 7 8 8 7 6 6 6 5 6 5 5
12 13 14 20 25 19 17 19 17 15 10 9 13 15 16 18 19 19 18 17 16 14 11 10 9 8 6 5 5 3 3 3 3 4 6 6 6 6 5 5 6 6 5 6 6 6 5 4 3
12 14 15 20 25 24 19 23 20 17 14 14 17 14 17 18 19 18 18 17 16 15 14 12 10 9 7 5 4 2 1 1 1 1 2 3 4 3 3 2 2 3 4 4 3 3 3 3 3
12 14 16 21 25 26 25 26 25 21 16 15 16 15 16 17 18 17 16 16 15 14 13 13 11 10 8 7 5 4 3 3 2 2 2 2 1 2 2 1 1 1 2 2 3 4 5 6 7
15 16 16 19 24 23 28 26 26 25 22 18 17 17 17 16 17 17 17 16 16 14 12 12 11 11 10 8 7 7 7 7 8 8 7 7 6 6 6 6 6 6 6 7 7 8 10 11 12
19 17 16 19 23 21 27 27 27 24 21 18 19 20 19 17 18 18 16 15 14 14 14 13 12 11 11 10 10 11 11 11 11 10 10 9 9 9 9 9 9 10 10 10 11 12 13 14 15
20 18 16 19 24 21 29 28 26 21 19 21 20 19 19 20 17 16 15 14 12 10 10 11 12 12 12 12 12 12 12 12 12 12 11 11 12 12 12 12 13 14 14 16 16 17 17 18 18
22 20 19 20 23 28 27 27 22 21 21 22 22 21 20 20 18 15 14 12 10 10 9 9 9 11 12 13 13 13 13 13 13 13 13 14 15 15 16 16 17 17 18 20 20 21 21 22 23
19 21 20 23 23 30 31 27 25 25 23 21 22 21 20 19 18 16 15 13 12 12 12 11 11 11 11 10 12 13 14 16 15 14 15 15 17 17 17 18 19 21 22 23 23 25 26 26 27
18 22 20 22 28 32 29 27 29 24 22 21 20 20 19 18 17 16 15 14 13 13 13 15 15 16 16 14 10 12 11 13 14 12 12 15 15 16 16 18 19 20 24 25 26 28 28 28 31
23 22 24 28 32 33 33 30 26 23 24 22 20 18 18 16 14 13 11 11 11 11 13 14 16 18 19 12 12 18 13 9 9 13 12 9 14 15 15 18 19 21 24 25 25 26 27 27 31
29 26 33 31 36 34 33 30 27 24 24 22 20 18 16 15 13 12 12 12 12 13 15 17 18 19 21 23 17 16 14 10 13 15 10 12 17 17 17 24 25 28 27 27 28 28 29 31 32
30 21 27 34 37 36 34 27 30 27 25 23 21 20 18 16 15 15 15 15 16 16 18 20 20 21 21 18 23 23 20 23 21 17 23 23 22 23 27 31 32 32 26 27 30 32 34 37 41
29 33 29 29 33 34 33 31 28 30 28 25 24 22 21 20 18 18 18 19 19 21 21 21 19 21 21 25 19 19 20 16 15 17 20 24 26 33 35 31 31 30 32 34 35 33 38 39 42
26 31 33 33 33 37 35 34 28 31 31 27 24 23 21 21 21 21 21 22 22 20 17 15 14 14 16 23 21 20 20 19 21 24 28 29 31 25 21 20 20 21 23 25 27 28 32 34 35
31 32 37 35 39 29 30 26 32 32 32 30 28 25 25 23 21 21 22 21 20 17 15 14 14 14 13 15 18 20 23 24 27 24 21 18 18 18 19 19 20 20 21 21 22 23 24 25 26
36 28 34 38 36 24 27 13 33 35 34 36 33 31 28 25 22 19 18 18 17 16 15 14 14 13 13 13 14 14 14 15 14 14 15 15 14 13 12 12 13 14 16 17 19 20 21 23 25
33 27 25 34 29 21 27 17 20 38 42 40 35 35 33 26 21 18 17 18 17 15 13 12 12 11 11 11 11 11 12 13 12 11 10 10 10 9 10 11 13 15 17 19 20 21 21 21 21
22 21 23 21 24 10 31 26 29 40 49 38 40 39 35 28 23 18 17 17 16 14 14 13 13 14 14 13 12 11 9 8 8 8 7 8 9 10 12 14 16 17 18 20 21 22 23 23 24
27 29 9 7 7 16 32 21 38 27 37 41 38 41 37 31 21 18 16 17 17 16 16 16 15 14 13 11 10 9 7 7 6 6 7 7 9 10 12 13 14 16 17 19 20 22 23 25 27
39 39 16 14 14 17 14 15 24 37 14 24 37 43 39 31 24 20 15 15 16 17 16 16 15 14 13 12 10 8 7 6 5 5 5 7 8 9 11 13 15 16 18 20 23 24 25 26 28
34 33 40 20 15 11 20 31 28 17 43 44 26 39 41 35 30 25 17 15 14 15 15 15 14 13 11 10 9 8 7 6 4 4 6 7 9 11 13 15 16 18 20 22 24 26 27 29 31
35 43 24 17 10 16 18 34 25 32 35 39 45 25 36 34 33 28 23 17 13 14 15 14 12 11 10 9 9 8 6 5 5 6 7 9 10 12 14 15 18 20 22 23 25 27 28 31 33
28 33 28 30 19 13 16 24 31 34 35 38 38 49 34 39 36 32 26 21 15 15 15 15 14 12 12 11 9 8 7 6 6 7 8 9 11 13 15 17 19 20 23 24 27 29 31 33 36
30 31 45 24 28 34 22 28 5 16 27 38 33 36 47 38 38 35 30 23 15 15 16 16 16 14 12 11 10 9 8 8 8 8 9 10 12 14 16 18 20 22 25 27 29 31 33 35 38
Wind_Direction
264 264 256 203 138 120 101 98 121 137 139 153 183 185 218 255 152 121 127 115 117 119 117 110 109 107 101 87 70 73 95 102 98 89 77 69 76 82 90 98 98 99 100 101 101 104 108 113 115
238 213 204 212 161 131 122 120 125 137 134 135 127 123 128 119 113 109 113 106 116 120 120 113 109 105 101 84 67 53 62 78 85 78 63 61 66 81 87 87 89 94 98 100 104 104 104 109 112
223 207 201 199 184 152 140 134 137 133 127 132 123 124 113 112 108 105 98 99 104 115 120 115 107 102 96 84 68 49 51 57 59 57 66 79 83 81 90 97 96 97 98 107 108 110 111 111 109
223 209 205 189 183 167 152 150 152 147 141 134 122 122 118 114 110 105 101 107 106 111 123 121 112 104 97 86 66 56 52 45 44 47 48 56 74 86 90 91 102 110 110 107 109 112 111 106 107
221 208 195 189 188 175 168 167 171 163 168 174 164 132 125 120 116 112 110 111 111 115 124 126 120 115 107 99 80 65 54 46 43 43 51 69 73 78 92 110 112 110 114 115 115 119 115 108 94
225 208 192 190 194 187 168 180 182 183 197 234 171 141 134 128 125 120 116 118 117 123 127 126 126 123 119 110 94 75 58 44 38 40 49 62 70 77 90 101 105 112 123 124 131 130 124 117 114
228 216 205 195 194 198 190 183 181 191 197 188 179 160 149 139 132 130 130 129 127 132 135 132 133 130 126 120 115 98 67 50 42 39 47 58 76 76 72 85 112 126 135 141 143 139 130 140 135
237 220 218 202 196 198 197 181 183 190 201 189 180 182 162 149 141 141 137 136 136 142 144 144 147 151 152 149 141 127 119 113 97 62 50 60 73 81 85 85 74 100 127 136 136 158 177 196 220
240 225 216 204 195 194 191 186 184 185 203 201 185 169 167 160 152 149 144 142 142 146 148 150 155 159 161 164 169 177 191 209 220 223 211 183 151 134 158 192 220 227 243 248 237 235 242 251 260
235 235 213 207 197 198 188 189 186 184 183 188 187 183 173 168 163 160 157 156 155 154 155 159 165 168 170 176 184 194 200 206 210 213 215 214 210 207 207 209 213 225 245 257 260 265 272 276 277
233 236 222 211 212 200 192 185 185 183 189 202 185 179 176 174 174 171 170 169 168 169 170 174 177 179 183 188 198 205 211 216 223 228 230 231 231 230 231 232 233 233 232 236 247 263 271 274 276
226 228 224 215 214 212 199 195 194 194 196 185 180 181 176 175 180 177 170 169 168 176 191 200 200 197 199 206 214 220 223 229 234 239 243 245 247 248 246 247 245 246 245 247 248 248 247 251 260
227 227 220 220 220 215 209 204 205 193 188 188 183 183 178 179 185 189 183 181 188 194 203 214 227 234 232 235 240 244 247 246 248 250 249 251 252 253 254 254 255 258 260 261 262 262 263 264 266
226 226 222 214 220 215 206 208 199 192 192 197 189 186 184 189 192 196 203 207 213 226 231 238 242 243 256 267 262 262 266 266 262 263 264 265 267 264 265 267 267 268 267 268 268 270 270 270 270
215 217 213 210 209 206 204 208 195 202 203 200 202 193 195 201 206 209 211 216 222 229 239 245 253 258 262 271 270 272 295 271 276 284 287 282 280 284 278 278 279 279 280 276 276 274 276 280 279
210 209 200 196 198 201 197 201 205 203 204 207 208 210 210 213 217 222 229 230 230 233 239 243 246 256 268 254 260 271 283 278 293 288 298 308 308 291 295 294 296 294 290 289 283 282 282 285 282
203 203 202 191 197 200 197 205 209 207 205 209 216 222 224 228 236 244 253 257 254 255 256 256 247 246 249 252 269 258 267 268 269 294 281 297 294 295 295 299 296 299 296 288 288 287 287 286 287
189 209 194 196 197 204 206 211 211 210 209 208 212 218 228 234 244 252 261 264 267 269 270 266 260 250 249 253 249 249 246 274 259 262 278 292 289 289 299 290 286 290 288 289 292 287 290 284 294
213 210 206 203 204 208 211 216 216 209 208 213 213 216 224 236 245 256 266 269 273 278 277 269 257 256 245 251 247 252 258 278 273 278 280 287 291 295 296 291 288 290 285 287 286 287 284 288 290
212 212 206 208 214 209 210 213 214 212 212 210 215 222 232 241 249 257 264 272 279 278 270 264 255 248 252 242 253 252 262 261 271 281 287 288 291 294 298 299 298 293 290 290 290 290 289 291 293
215 218 206 205 205 205 213 205 206 209 210 215 218 221 228 235 243 252 264 272 273 267 262 259 253 251 249 245 251 256 260 261 267 277 280 284 291 294 298 302 305 307 309 311 311 311 311 308 307
223 217 221 207 202 197 196 215 217 214 217 219 218 226 231 236 244 252 259 261 259 258 257 253 252 255 256 256 257 262 267 266 267 278 288 295 299 303 304 304 306 308 311 312 312 311 312 314 316
227 224 226 219 202 214 207 221 227 219 216 217 223 227 229 230 238 248 256 252 245 241 241 242 243 245 248 252 258 265 271 279 285 290 295 295 296 305 317 323 327 329 330 329 327 325 324 321 320
207 200 207 193 200 202 216 215 226 228 227 227 225 229 227 228 232 241 240 237 232 228 228 230 237 245 250 253 255 256 259 268 275 279 285 299 315 325 331 334 335 333 331 329 329 329 329 330 329
197 183 146 172 194 225 217 215 233 244 238 234 239 235 229 225 226 229 232 228 225 224 228 233 237 236 233 229 230 235 243 252 266 284 301 315 326 331 332 331 331 333 333 333 332 332 332 330 329
197 193 185 205 207 215 215 232 241 233 223 230 238 238 230 223 225 217 217 219 222 225 229 227 220 215 214 215 217 222 230 243 261 280 300 313 316 320 323 329 333 338 338 336 334 334 332 331 330
200 205 210 218 226 212 217 240 246 237 224 232 236 228 227 225 222 213 212 217 225 228 224 217 214 215 215 215 216 219 223 233 253 288 305 310 317 326 330 333 337 339 338 337 336 335 333 332 333
212 210 191 206 195 217 218 231 232 220 226 228 225 223 220 218 217 212 214 220 228 226 221 221 223 224 223 224 225 230 241 262 284 298 307 313 319 323 328 334 339 337 336 334 333 332 333 334 333
201 199 209 213 213 222 235 243 242 235 235 234 233 226 221 213 207 211 214 218 225 223 223 225 225 224 224 226 232 242 254 266 279 287 296 310 318 325 334 339 336 334 334 335 334 336 336 335 335
217 217 207 200 211 227 237 238 151 240 250 243 227 231 218 213 208 209 214 217 224 225 226 226 225 224 227 231 236 243 252 261 272 288 306 314 324 333 335 333 334 336 337 337 338 337 335 334 334